Location: Warszawa
(52.2500°N, 21.0000°E)
Time: 21:15:09
(UTC+02:00)

Vanguard 2 - Pass Details

Date: 09 February 2023
Orbit: 553 x 2927 km, 32.9° (Epoch: 27 March)

Event Time Altitude Azimuth Distance (km) Brightness Sun altitude
Rises 19:21:09 0° 213° (SSW) 4,548 11.8 -25.3°
Reaches altitude 10° 19:24:36 10° 199° (SSW) 3,922 11.2 -25.9°
Maximum altitude 19:32:40 24° 151° (SSE) 3,633 10.6 -27.1°
Enters shadow 19:33:23 24° 147° (SSE) 3,695 10.6 -27.2°
